Location: Cerezo de Arriba
(41.2389°N, 3.5585°W)
Time: 04:11:31
(UTC+00:00)

Cosmos 2218 Rocket - Pass Details

Date: 19 May 2025
Orbit: 954 x 1006 km, 82.9° (Epoch: 23 June)

Event Time Altitude Azimuth Distance (km) Brightness Sun altitude
Rises 22:19:37 0° 348° (NNW) 3,730 8.3 -23.6°
Reaches altitude 10° 22:22:13 10° 345° (NNW) 2,771 7.4 -23.8°
Maximum altitude 22:28:24 57° 268° (W) 1,150 4.4 -24.3°
Enters shadow 22:30:49 36° 209° (SSW) 1,507 4.7 -24.5°
